Time,TemperatureF,DewpointF,PressureIn,WindDirection,WindDirectionDegrees,WindSpeedMPH,WindSpeedGustMPH,Humidity,HourlyPrecipIn,Conditions,Clouds,dailyrainin,SoftwareType,DateUTC
2013-09-20 00:01:00,70.9,57.2,29.82,North,0,0.0,0.0,62,0.00,,---,0.00,VWS V14.00,2013-09-20 04:01:00,
2013-09-20 00:03:00,70.7,57.1,29.82,North,0,0.0,0.0,62,0.00,,---,0.00,VWS V14.00,2013-09-20 04:03:00,
2013-09-20 00:05:00,70.7,57.1,29.82,North,0,0.0,0.0,62,0.00,,---,0.00,VWS V14.00,2013-09-20 04:05:00,
2013-09-20 00:06:00,70.7,57.1,29.82,North,0,0.0,0.0,62,0.00,,---,0.00,VWS V14.00,2013-09-20 04:06:00,
2013-09-20 00:11:00,70.7,57.1,29.82,North,0,0.0,0.0,62,0.00,,---,0.00,VWS V14.00,2013-09-20 04:11:00,
2013-09-20 00:16:00,70.7,57.1,29.82,North,0,0.0,0.0,62,0.00,,---,0.00,VWS V14.00,2013-09-20 04:16:00,
2013-09-20 00:21:00,70.7,57.1,29.82,North,0,0.0,0.0,62,0.00,,---,0.00,VWS V14.00,2013-09-20 04:21:00,
2013-09-20 00:26:00,70.5,56.9,29.82,North,0,0.0,0.0,62,0.00,,---,0.00,VWS V14.00,2013-09-20 04:26:00,
2013-09-20 00:31:00,70.5,56.9,29.82,North,0,0.0,0.0,62,0.00,,---,0.00,VWS V14.00,2013-09-20 04:31:00,
2013-09-20 00:36:00,70.3,56.7,29.82,North,0,0.0,0.0,62,0.00,,---,0.00,VWS V14.00,2013-09-20 04:36:00,
2013-09-20 00:41:00,70.3,57.2,29.82,North,0,0.0,0.0,63,0.00,,---,0.00,VWS V14.00,2013-09-20 04:41:00,
2013-09-20 00:46:00,70.3,57.6,29.82,North,0,0.0,0.0,64,0.00,,---,0.00,VWS V14.00,2013-09-20 04:46:00,
2013-09-20 00:51:00,70.3,57.6,29.82,North,0,0.0,0.0,64,0.00,,---,0.00,VWS V14.00,2013-09-20 04:51:00,
2013-09-20 00:56:00,70.3,57.6,29.82,North,0,0.0,0.0,64,0.00,,---,0.00,VWS V14.00,2013-09-20 04:56:00,
2013-09-20 01:01:00,70.2,57.4,29.82,North,0,0.0,0.0,64,0.00,,---,0.00,VWS V14.00,2013-09-20 05:01:00,
2013-09-20 01:06:00,70.3,58.0,29.82,North,0,0.0,0.0,65,0.00,,---,0.00,VWS V14.00,2013-09-20 05:06:00,
2013-09-20 01:11:00,70.2,57.4,29.82,North,0,0.0,0.0,64,0.00,,---,0.00,VWS V14.00,2013-09-20 05:11:00,
2013-09-20 01:16:00,70.2,57.9,29.82,North,0,0.0,0.0,65,0.00,,---,0.00,VWS V14.00,2013-09-20 05:16:00,
2013-09-20 01:21:00,70.2,57.9,29.82,North,0,0.0,0.0,65,0.00,,---,0.00,VWS V14.00,2013-09-20 05:21:00,
2013-09-20 01:26:00,70.2,58.3,29.82,North,0,0.0,0.0,66,0.00,,---,0.00,VWS V14.00,2013-09-20 05:26:00,
2013-09-20 01:31:00,70.2,58.7,29.82,North,0,0.0,0.0,67,0.00,,---,0.00,VWS V14.00,2013-09-20 05:31:00,
2013-09-20 01:36:00,70.2,58.7,29.82,North,0,0.0,0.0,67,0.00,,---,0.00,VWS V14.00,2013-09-20 05:36:00,
2013-09-20 01:41:00,70.2,58.7,29.82,North,0,0.0,0.0,67,0.00,,---,0.00,VWS V14.00,2013-09-20 05:41:00,
2013-09-20 01:46:00,70.2,59.1,29.82,North,0,0.0,0.0,68,0.00,,---,0.00,VWS V14.00,2013-09-20 05:46:00,
2013-09-20 01:51:00,70.2,59.1,29.82,North,0,0.0,0.0,68,0.00,,---,0.00,VWS V14.00,2013-09-20 05:51:00,
2013-09-20 01:56:00,70.2,59.5,29.82,North,0,0.0,0.0,69,0.00,,---,0.00,VWS V14.00,2013-09-20 05:56:00,
2013-09-20 02:01:00,70.2,59.5,29.82,North,0,0.0,0.0,69,0.00,,---,0.00,VWS V14.00,2013-09-20 06:01:00,
2013-09-20 02:06:00,70.2,59.9,29.82,North,0,0.0,0.0,70,0.00,,---,0.00,VWS V14.00,2013-09-20 06:06:00,
2013-09-20 02:11:00,70.0,59.8,29.82,North,0,0.0,0.0,70,0.00,,---,0.00,VWS V14.00,2013-09-20 06:11:00,
2013-09-20 02:16:00,70.0,59.8,29.82,North,0,0.0,0.0,70,0.00,,---,0.00,VWS V14.00,2013-09-20 06:16:00,
2013-09-20 02:21:00,70.0,59.8,29.82,North,0,0.0,0.0,70,0.00,,---,0.00,VWS V14.00,2013-09-20 06:21:00,
2013-09-20 02:26:00,70.0,59.8,29.82,North,0,0.0,0.0,70,0.00,,---,0.00,VWS V14.00,2013-09-20 06:26:00,
2013-09-20 02:31:00,70.0,59.8,29.82,North,0,0.0,0.0,70,0.00,,---,0.00,VWS V14.00,2013-09-20 06:31:00,
2013-09-20 02:36:00,69.8,59.6,29.82,North,0,0.0,0.0,70,0.00,,---,0.00,VWS V14.00,2013-09-20 06:36:00,
2013-09-20 02:41:00,69.8,59.6,29.82,North,0,0.0,0.0,70,0.00,,---,0.00,VWS V14.00,2013-09-20 06:41:00,
2013-09-20 02:46:00,69.6,59.4,29.82,North,0,0.0,0.0,70,0.00,,---,0.00,VWS V14.00,2013-09-20 06:46:00,
2013-09-20 02:51:00,69.6,59.4,29.82,North,0,0.0,0.0,70,0.00,,---,0.00,VWS V14.00,2013-09-20 06:51:00,
2013-09-20 02:56:00,69.6,59.8,29.82,North,0,0.0,0.0,71,0.00,,---,0.00,VWS V14.00,2013-09-20 06:56:00,
2013-09-20 03:01:00,69.6,59.8,29.82,North,0,0.0,0.0,71,0.00,,---,0.00,VWS V14.00,2013-09-20 07:01:00,
2013-09-20 03:06:00,69.4,59.6,29.82,North,0,0.0,0.0,71,0.00,,---,0.00,VWS V14.00,2013-09-20 07:06:00,
2013-09-20 03:11:00,69.4,59.6,29.82,North,0,0.0,0.0,71,0.00,,---,0.00,VWS V14.00,2013-09-20 07:11:00,
2013-09-20 03:16:00,69.4,59.6,29.82,North,0,0.0,0.0,71,0.00,,---,0.00,VWS V14.00,2013-09-20 07:16:00,
2013-09-20 03:21:00,69.4,60.0,29.82,North,0,0.0,0.0,72,0.00,,---,0.00,VWS V14.00,2013-09-20 07:21:00,
2013-09-20 03:26:00,69.4,60.0,29.82,North,0,0.0,0.0,72,0.00,,---,0.00,VWS V14.00,2013-09-20 07:26:00,
2013-09-20 03:31:00,69.4,60.0,29.82,North,0,0.0,0.0,72,0.00,,---,0.00,VWS V14.00,2013-09-20 07:31:00,
2013-09-20 03:36:00,69.4,60.0,29.82,North,0,0.0,0.0,72,0.00,,---,0.00,VWS V14.00,2013-09-20 07:36:00,
2013-09-20 03:41:00,69.4,60.4,29.82,North,0,0.0,0.0,73,0.00,,---,0.00,VWS V14.00,2013-09-20 07:41:00,
2013-09-20 03:46:00,69.3,60.2,29.79,North,0,0.0,0.0,73,0.00,,---,0.00,VWS V14.00,2013-09-20 07:46:00,
2013-09-20 03:51:00,69.3,60.2,29.79,North,0,0.0,0.0,73,0.00,,---,0.00,VWS V14.00,2013-09-20 07:51:00,
2013-09-20 03:56:00,69.1,60.1,29.79,North,0,0.0,0.0,73,0.00,,---,0.00,VWS V14.00,2013-09-20 07:56:00,
2013-09-20 04:01:00,69.1,60.1,29.79,North,0,0.0,0.0,73,0.00,,---,0.00,VWS V14.00,2013-09-20 08:01:00,
2013-09-20 04:06:00,69.1,60.1,29.79,North,0,0.0,0.0,73,0.00,,---,0.00,VWS V14.00,2013-09-20 08:06:00,
2013-09-20 04:11:00,69.1,60.1,29.79,North,0,0.0,0.0,73,0.00,,---,0.00,VWS V14.00,2013-09-20 08:11:00,
2013-09-20 04:16:00,68.9,59.9,29.79,North,0,0.0,0.0,73,0.00,,---,0.00,VWS V14.00,2013-09-20 08:16:00,
2013-09-20 04:21:00,68.9,59.9,29.79,North,0,0.0,0.0,73,0.00,,---,0.00,VWS V14.00,2013-09-20 08:21:00,
2013-09-20 04:26:00,68.9,59.9,29.79,North,0,0.0,0.0,73,0.00,,---,0.00,VWS V14.00,2013-09-20 08:26:00,
2013-09-20 04:31:00,68.9,60.3,29.79,North,0,0.0,0.0,74,0.00,,---,0.00,VWS V14.00,2013-09-20 08:31:00,
2013-09-20 04:36:00,68.7,60.1,29.79,North,0,0.0,0.0,74,0.00,,---,0.00,VWS V14.00,2013-09-20 08:36:00,
2013-09-20 04:41:00,68.7,60.1,29.79,North,0,0.0,0.0,74,0.00,,---,0.00,VWS V14.00,2013-09-20 08:41:00,
2013-09-20 04:46:00,68.7,59.7,29.79,North,0,0.0,0.0,73,0.00,,---,0.00,VWS V14.00,2013-09-20 08:46:00,
2013-09-20 04:51:00,68.7,60.1,29.79,North,0,0.0,0.0,74,0.00,,---,0.00,VWS V14.00,2013-09-20 08:51:00,
2013-09-20 04:56:00,68.5,59.9,29.79,North,0,0.0,0.0,74,0.00,,---,0.00,VWS V14.00,2013-09-20 08:56:00,
2013-09-20 05:01:00,68.7,60.1,29.79,North,0,0.0,0.0,74,0.00,,---,0.00,VWS V14.00,2013-09-20 09:01:00,
2013-09-20 05:06:00,68.5,59.9,29.79,North,0,0.0,0.0,74,0.00,,---,0.00,VWS V14.00,2013-09-20 09:06:00,
2013-09-20 05:11:00,68.5,59.9,29.79,North,0,0.0,0.0,74,0.00,,---,0.00,VWS V14.00,2013-09-20 09:11:00,
2013-09-20 05:16:00,68.5,60.3,29.79,North,0,0.0,0.0,75,0.00,,---,0.00,VWS V14.00,2013-09-20 09:16:00,
2013-09-20 05:21:00,68.5,60.3,29.79,North,0,0.0,0.0,75,0.00,,---,0.00,VWS V14.00,2013-09-20 09:21:00,
2013-09-20 05:26:00,68.5,60.3,29.79,North,0,0.0,0.0,75,0.00,,---,0.00,VWS V14.00,2013-09-20 09:26:00,
2013-09-20 05:31:00,68.5,60.3,29.79,North,0,0.0,0.0,75,0.00,,---,0.00,VWS V14.00,2013-09-20 09:31:00,
2013-09-20 05:36:00,68.5,60.7,29.79,North,0,0.0,0.0,76,0.00,,---,0.00,VWS V14.00,2013-09-20 09:36:00,
2013-09-20 05:41:00,68.7,60.9,29.79,North,0,0.0,0.0,76,0.00,,---,0.00,VWS V14.00,2013-09-20 09:41:00,
2013-09-20 05:46:00,68.7,60.9,29.79,North,0,0.0,0.0,76,0.00,,---,0.00,VWS V14.00,2013-09-20 09:46:00,
2013-09-20 05:51:00,68.7,60.9,29.79,North,0,0.0,0.0,76,0.00,,---,0.00,VWS V14.00,2013-09-20 09:51:00,
2013-09-20 05:56:00,68.7,60.9,29.79,North,0,0.0,0.0,76,0.00,,---,0.00,VWS V14.00,2013-09-20 09:56:00,
2013-09-20 06:01:00,68.7,60.9,29.82,North,0,0.0,0.0,76,0.00,,---,0.00,VWS V14.00,2013-09-20 10:01:00,
2013-09-20 06:06:00,68.9,61.0,29.82,North,0,0.0,0.0,76,0.00,,---,0.00,VWS V14.00,2013-09-20 10:06:00,
2013-09-20 06:11:00,69.1,61.6,29.82,North,0,0.0,0.0,77,0.00,,---,0.00,VWS V14.00,2013-09-20 10:11:00,
2013-09-20 06:16:00,69.1,61.6,29.82,North,0,0.0,0.0,77,0.00,,---,0.00,VWS V14.00,2013-09-20 10:16:00,
2013-09-20 06:21:00,69.1,61.6,29.82,North,0,0.0,0.0,77,0.00,,---,0.00,VWS V14.00,2013-09-20 10:21:00,
2013-09-20 06:26:00,69.3,61.8,29.82,North,0,0.0,0.0,77,0.00,,---,0.00,VWS V14.00,2013-09-20 10:26:00,
2013-09-20 06:31:00,69.1,61.6,29.82,North,0,0.0,0.0,77,0.00,,---,0.00,VWS V14.00,2013-09-20 10:31:00,
2013-09-20 06:36:00,69.1,61.2,29.82,North,0,0.0,0.0,76,0.00,,---,0.00,VWS V14.00,2013-09-20 10:36:00,
2013-09-20 06:41:00,69.1,61.6,29.82,North,0,0.0,0.0,77,0.00,,---,0.00,VWS V14.00,2013-09-20 10:41:00,
2013-09-20 06:46:00,69.1,61.6,29.82,North,0,0.0,0.0,77,0.00,,---,0.00,VWS V14.00,2013-09-20 10:46:00,
2013-09-20 06:51:00,69.1,61.6,29.82,North,0,0.0,0.0,77,0.00,,---,0.00,VWS V14.00,2013-09-20 10:51:00,
2013-09-20 06:56:00,68.9,61.0,29.82,North,0,0.0,0.0,76,0.00,,---,0.00,VWS V14.00,2013-09-20 10:56:00,
2013-09-20 07:01:00,68.9,61.0,29.82,North,0,0.0,0.0,76,0.00,,---,0.00,VWS V14.00,2013-09-20 11:01:00,
2013-09-20 07:06:00,68.9,61.4,29.82,North,0,0.0,0.0,77,0.00,,---,0.00,VWS V14.00,2013-09-20 11:06:00,
2013-09-20 07:11:00,68.9,61.4,29.82,North,0,0.0,0.0,77,0.00,,---,0.00,VWS V14.00,2013-09-20 11:11:00,
2013-09-20 07:16:00,68.9,61.4,29.82,North,0,0.0,0.0,77,0.00,,---,0.00,VWS V14.00,2013-09-20 11:16:00,
2013-09-20 07:21:00,68.9,61.4,29.82,North,0,0.0,0.0,77,0.00,,---,0.00,VWS V14.00,2013-09-20 11:21:00,
2013-09-20 07:26:00,68.9,61.4,29.82,North,0,0.0,0.0,77,0.00,,---,0.00,VWS V14.00,2013-09-20 11:26:00,
2013-09-20 07:31:00,68.9,61.4,29.82,North,0,0.0,0.0,77,0.00,,---,0.00,VWS V14.00,2013-09-20 11:31:00,
2013-09-20 07:36:00,68.9,61.4,29.82,North,0,0.0,0.0,77,0.00,,---,0.00,VWS V14.00,2013-09-20 11:36:00,
2013-09-20 07:41:00,68.9,61.4,29.82,North,0,0.0,0.0,77,0.00,,---,0.00,VWS V14.00,2013-09-20 11:41:00,
2013-09-20 07:46:00,69.1,61.9,29.82,North,0,0.0,0.0,78,0.00,,---,0.00,VWS V14.00,2013-09-20 11:46:00,
2013-09-20 07:51:00,69.1,61.9,29.82,North,0,0.0,0.0,78,0.00,,---,0.00,VWS V14.00,2013-09-20 11:51:00,
2013-09-20 07:56:00,69.1,61.6,29.82,North,0,0.0,0.0,77,0.00,,---,0.00,VWS V14.00,2013-09-20 11:56:00,
2013-09-20 08:01:00,69.3,62.1,29.82,North,0,0.0,0.0,78,0.00,,---,0.00,VWS V14.00,2013-09-20 12:01:00,
2013-09-20 08:06:00,69.3,62.1,29.82,North,0,0.0,0.0,78,0.00,,---,0.00,VWS V14.00,2013-09-20 12:06:00,
2013-09-20 08:11:00,69.6,62.8,29.82,North,0,0.0,0.0,79,0.00,,---,0.00,VWS V14.00,2013-09-20 12:11:00,
2013-09-20 08:16:00,69.8,63.0,29.82,North,0,0.0,0.0,79,0.00,,---,0.00,VWS V14.00,2013-09-20 12:16:00,
2013-09-20 08:21:00,70.2,63.3,29.82,North,0,0.0,0.0,79,0.00,,---,0.00,VWS V14.00,2013-09-20 12:21:00,
2013-09-20 08:26:00,70.5,64.1,29.82,North,0,0.0,0.0,80,0.00,,---,0.00,VWS V14.00,2013-09-20 12:26:00,
2013-09-20 08:31:00,70.9,64.4,29.85,North,0,0.0,0.0,80,0.00,,---,0.00,VWS V14.00,2013-09-20 12:31:00,
2013-09-20 08:36:00,71.1,64.6,29.85,North,0,0.0,0.0,80,0.00,,---,0.00,VWS V14.00,2013-09-20 12:36:00,
2013-09-20 08:41:00,71.2,64.4,29.85,North,0,0.0,0.0,79,0.00,,---,0.00,VWS V14.00,2013-09-20 12:41:00,
2013-09-20 08:46:00,71.6,64.8,29.85,North,0,0.0,0.0,79,0.00,,---,0.00,VWS V14.00,2013-09-20 12:46:00,
2013-09-20 08:51:00,71.8,64.9,29.85,North,0,0.0,0.0,79,0.00,,---,0.00,VWS V14.00,2013-09-20 12:51:00,
2013-09-20 08:56:00,72.1,65.3,29.85,North,0,0.0,0.0,79,0.00,,---,0.00,VWS V14.00,2013-09-20 12:56:00,
2013-09-20 09:01:00,72.7,65.4,29.82,North,0,0.0,0.0,78,0.00,,---,0.00,VWS V14.00,2013-09-20 13:01:00,
2013-09-20 09:06:00,72.7,65.1,29.82,North,0,0.0,0.0,77,0.00,,---,0.00,VWS V14.00,2013-09-20 13:06:00,
2013-09-20 09:11:00,72.9,64.5,29.82,North,0,0.0,0.0,75,0.00,,---,0.00,VWS V14.00,2013-09-20 13:11:00,
2013-09-20 09:16:00,72.9,64.1,29.82,North,0,0.0,0.0,74,0.00,,---,0.00,VWS V14.00,2013-09-20 13:16:00,
2013-09-20 09:21:00,73.0,64.3,29.82,North,0,0.0,0.0,74,0.00,,---,0.00,VWS V14.00,2013-09-20 13:21:00,
2013-09-20 09:26:00,73.2,64.4,29.82,North,0,0.0,0.0,74,0.00,,---,0.00,VWS V14.00,2013-09-20 13:26:00,
2013-09-20 09:31:00,73.6,64.4,29.82,North,0,0.0,0.0,73,0.00,,---,0.00,VWS V14.00,2013-09-20 13:31:00,
2013-09-20 09:36:00,74.1,64.5,29.82,North,0,0.0,0.0,72,0.00,,---,0.00,VWS V14.00,2013-09-20 13:36:00,
2013-09-20 09:41:00,74.5,62.8,29.82,North,0,0.0,0.0,67,0.00,,---,0.00,VWS V14.00,2013-09-20 13:41:00,
2013-09-20 09:46:00,74.7,63.4,29.85,North,0,0.0,0.0,68,0.00,,---,0.00,VWS V14.00,2013-09-20 13:46:00,
2013-09-20 09:51:00,74.8,63.2,29.85,North,0,0.0,0.0,67,0.00,,---,0.00,VWS V14.00,2013-09-20 13:51:00,
2013-09-20 09:56:00,75.2,61.3,29.85,North,0,0.0,0.0,62,0.00,,---,0.00,VWS V14.00,2013-09-20 13:56:00,
2013-09-20 10:01:00,75.2,61.8,29.82,North,0,0.0,0.0,63,0.00,,---,0.00,VWS V14.00,2013-09-20 14:01:00,
2013-09-20 10:06:00,75.2,58.9,29.82,North,0,0.0,0.0,57,0.00,,---,0.00,VWS V14.00,2013-09-20 14:06:00,
2013-09-20 10:11:00,75.6,58.3,29.82,North,0,0.0,0.0,55,0.00,,---,0.00,VWS V14.00,2013-09-20 14:11:00,
2013-09-20 10:16:00,75.7,59.0,29.85,North,0,0.0,0.0,56,0.00,,---,0.00,VWS V14.00,2013-09-20 14:16:00,
2013-09-20 10:21:00,76.3,58.9,29.85,North,0,0.0,0.0,55,0.00,,---,0.00,VWS V14.00,2013-09-20 14:21:00,
2013-09-20 10:26:00,77.2,56.6,29.85,North,0,0.0,0.0,49,0.00,,---,0.00,VWS V14.00,2013-09-20 14:26:00,
2013-09-20 10:31:00,78.1,56.2,29.82,North,0,0.0,0.0,47,0.00,,---,0.00,VWS V14.00,2013-09-20 14:31:00,
2013-09-20 10:36:00,78.1,55.6,29.82,North,0,0.0,0.0,46,0.00,,---,0.00,VWS V14.00,2013-09-20 14:36:00,
2013-09-20 10:41:00,78.6,58.4,29.82,North,0,0.0,0.0,50,0.00,,---,0.00,VWS V14.00,2013-09-20 14:41:00,
2013-09-20 10:46:00,78.4,57.1,29.85,North,0,0.0,0.0,48,0.00,,---,0.00,VWS V14.00,2013-09-20 14:46:00,
2013-09-20 10:51:00,78.6,57.9,29.85,North,0,0.0,0.0,49,0.00,,---,0.00,VWS V14.00,2013-09-20 14:51:00,
2013-09-20 10:56:00,79.0,57.6,29.85,North,0,0.0,0.0,48,0.00,,---,0.00,VWS V14.00,2013-09-20 14:56:00,
2013-09-20 11:01:00,79.2,57.2,29.85,North,0,0.0,0.0,47,0.00,,---,0.00,VWS V14.00,2013-09-20 15:01:00,
2013-09-20 11:06:00,79.2,56.6,29.85,North,0,0.0,0.0,46,0.00,,---,0.00,VWS V14.00,2013-09-20 15:06:00,
2013-09-20 11:11:00,79.9,57.3,29.85,North,0,0.0,0.0,46,0.00,,---,0.00,VWS V14.00,2013-09-20 15:11:00,
2013-09-20 11:16:00,79.9,55.4,29.82,North,0,0.0,0.0,43,0.00,,---,0.00,VWS V14.00,2013-09-20 15:16:00,
2013-09-20 11:21:00,79.7,55.2,29.82,North,0,0.0,0.0,43,0.00,,---,0.00,VWS V14.00,2013-09-20 15:21:00,
2013-09-20 11:26:00,79.9,54.8,29.82,North,0,0.0,0.0,42,0.00,,---,0.00,VWS V14.00,2013-09-20 15:26:00,
2013-09-20 11:31:00,79.7,53.3,29.82,North,0,0.0,0.0,40,0.00,,---,0.00,VWS V14.00,2013-09-20 15:31:00,
2013-09-20 11:36:00,79.7,52.6,29.82,North,0,0.0,0.0,39,0.00,,---,0.00,VWS V14.00,2013-09-20 15:36:00,
2013-09-20 11:41:00,79.5,54.4,29.82,North,0,0.0,0.0,42,0.00,,---,0.00,VWS V14.00,2013-09-20 15:41:00,
2013-09-20 11:46:00,79.5,54.4,29.82,North,0,0.0,0.0,42,0.00,,---,0.00,VWS V14.00,2013-09-20 15:46:00,
2013-09-20 11:51:00,79.5,54.4,29.82,North,0,0.0,0.0,42,0.00,,---,0.00,VWS V14.00,2013-09-20 15:51:00,
2013-09-20 11:56:00,79.7,53.9,29.82,North,0,0.0,0.0,41,0.00,,---,0.00,VWS V14.00,2013-09-20 15:56:00,
2013-09-20 12:01:00,79.9,55.4,29.82,North,0,0.0,0.0,43,0.00,,---,0.00,VWS V14.00,2013-09-20 16:01:00,
2013-09-20 12:06:00,79.9,55.4,29.82,North,0,0.0,0.0,43,0.00,,---,0.00,VWS V14.00,2013-09-20 16:06:00,
2013-09-20 12:11:00,79.7,55.9,29.82,North,0,0.0,0.0,44,0.00,,---,0.00,VWS V14.00,2013-09-20 16:11:00,
2013-09-20 12:16:00,79.5,55.7,29.82,North,0,0.0,0.0,44,0.00,,---,0.00,VWS V14.00,2013-09-20 16:16:00,
2013-09-20 12:21:00,79.2,55.4,29.82,North,0,0.0,0.0,44,0.00,,---,0.00,VWS V14.00,2013-09-20 16:21:00,
2013-09-20 12:26:00,79.3,56.2,29.82,North,0,0.0,0.0,45,0.00,,---,0.00,VWS V14.00,2013-09-20 16:26:00,
2013-09-20 12:31:00,80.2,56.4,29.82,North,0,0.0,0.0,44,0.00,,---,0.00,VWS V14.00,2013-09-20 16:31:00,
2013-09-20 12:36:00,80.4,55.2,29.82,North,0,0.0,0.0,42,0.00,,---,0.00,VWS V14.00,2013-09-20 16:36:00,
2013-09-20 12:41:00,79.7,55.9,29.82,North,0,0.0,0.0,44,0.00,,---,0.00,VWS V14.00,2013-09-20 16:41:00,
2013-09-20 12:46:00,79.3,56.8,29.82,North,0,0.0,0.0,46,0.00,,---,0.00,VWS V14.00,2013-09-20 16:46:00,
2013-09-20 12:51:00,79.0,55.8,29.82,North,0,0.0,0.0,45,0.00,,---,0.00,VWS V14.00,2013-09-20 16:51:00,
2013-09-20 12:56:00,79.2,57.8,29.82,North,0,0.0,0.0,48,0.00,,---,0.00,VWS V14.00,2013-09-20 16:56:00,
2013-09-20 13:01:00,79.3,58.5,29.82,North,0,0.0,0.0,49,0.00,,---,0.00,VWS V14.00,2013-09-20 17:01:00,
2013-09-20 13:06:00,79.7,58.9,29.82,North,0,0.0,0.0,49,0.00,,---,0.00,VWS V14.00,2013-09-20 17:06:00,
2013-09-20 13:11:00,80.1,57.4,29.82,North,0,0.0,0.0,46,0.00,,---,0.00,VWS V14.00,2013-09-20 17:11:00,
2013-09-20 13:16:00,80.1,56.8,29.82,North,0,0.0,0.0,45,0.00,,---,0.00,VWS V14.00,2013-09-20 17:16:00,
2013-09-20 13:21:00,80.8,53.5,29.82,North,0,0.0,0.0,39,0.00,,---,0.00,VWS V14.00,2013-09-20 17:21:00,
2013-09-20 13:26:00,80.8,54.2,29.82,North,0,0.0,0.0,40,0.00,,---,0.00,VWS V14.00,2013-09-20 17:26:00,
2013-09-20 13:31:00,80.4,53.2,29.82,North,0,0.0,0.0,39,0.00,,---,0.00,VWS V14.00,2013-09-20 17:31:00,
2013-09-20 13:36:00,80.8,54.2,29.82,North,0,0.0,0.0,40,0.00,,---,0.00,VWS V14.00,2013-09-20 17:36:00,
2013-09-20 13:41:00,82.2,54.8,29.82,North,0,0.0,0.0,39,0.00,,---,0.00,VWS V14.00,2013-09-20 17:41:00,
2013-09-20 13:46:00,82.4,55.0,29.79,North,0,0.0,0.0,39,0.00,,---,0.00,VWS V14.00,2013-09-20 17:46:00,
2013-09-20 13:51:00,82.6,54.4,29.79,North,0,0.0,0.0,38,0.00,,---,0.00,VWS V14.00,2013-09-20 17:51:00,
2013-09-20 13:56:00,82.0,50.9,29.79,North,0,0.0,0.0,34,0.00,,---,0.00,VWS V14.00,2013-09-20 17:56:00,
2013-09-20 14:01:00,81.9,52.3,29.79,North,0,0.0,0.0,36,0.00,,---,0.00,VWS V14.00,2013-09-20 18:01:00,
2013-09-20 14:06:00,82.0,51.7,29.79,North,0,0.0,0.0,35,0.00,,---,0.00,VWS V14.00,2013-09-20 18:06:00,
2013-09-20 14:12:00,82.4,53.5,29.79,North,0,0.0,0.0,37,0.00,,---,0.00,VWS V14.00,2013-09-20 18:12:00,
2013-09-20 14:17:00,82.9,51.7,29.79,North,0,0.0,0.0,34,0.00,,---,0.00,VWS V14.00,2013-09-20 18:17:00,
2013-09-20 14:22:00,83.5,53.8,29.79,North,0,0.0,0.0,36,0.00,,---,0.00,VWS V14.00,2013-09-20 18:22:00,
2013-09-20 14:27:00,82.9,50.9,29.79,North,0,0.0,0.0,33,0.00,,---,0.00,VWS V14.00,2013-09-20 18:27:00,
2013-09-20 14:32:00,83.1,51.1,29.79,North,0,0.0,0.0,33,0.00,,---,0.00,VWS V14.00,2013-09-20 18:32:00,
2013-09-20 14:37:00,83.1,49.4,29.79,North,0,0.0,0.0,31,0.00,,---,0.00,VWS V14.00,2013-09-20 18:37:00,
2013-09-20 14:42:00,83.8,51.7,29.79,North,0,0.0,0.0,33,0.00,,---,0.00,VWS V14.00,2013-09-20 18:42:00,
2013-09-20 14:47:00,84.2,50.3,29.79,North,0,0.0,0.0,31,0.00,,---,0.00,VWS V14.00,2013-09-20 18:47:00,
2013-09-20 14:52:00,83.5,48.8,29.79,North,0,0.0,0.0,30,0.00,,---,0.00,VWS V14.00,2013-09-20 18:52:00,
2013-09-20 14:57:00,83.8,50.0,29.76,North,0,0.0,0.0,31,0.00,,---,0.00,VWS V14.00,2013-09-20 18:57:00,
2013-09-20 15:02:00,84.6,51.5,29.76,North,0,0.0,0.0,32,0.00,,---,0.00,VWS V14.00,2013-09-20 19:02:00,
2013-09-20 15:07:00,85.3,52.1,29.76,North,0,0.0,0.0,32,0.00,,---,0.00,VWS V14.00,2013-09-20 19:07:00,
2013-09-20 15:12:00,84.6,48.8,29.76,North,0,0.0,0.0,29,0.00,,---,0.00,VWS V14.00,2013-09-20 19:12:00,
2013-09-20 15:17:00,84.2,49.4,29.76,North,0,0.0,0.0,30,0.00,,---,0.00,VWS V14.00,2013-09-20 19:17:00,
2013-09-20 15:22:00,83.7,49.8,29.76,North,0,0.0,0.0,31,0.00,,---,0.00,VWS V14.00,2013-09-20 19:22:00,
2013-09-20 15:27:00,84.4,49.6,29.76,North,0,0.0,0.0,30,0.00,,---,0.00,VWS V14.00,2013-09-20 19:27:00,
2013-09-20 15:32:00,84.0,49.3,29.76,North,0,0.0,0.0,30,0.00,,---,0.00,VWS V14.00,2013-09-20 19:32:00,
2013-09-20 15:37:00,84.0,48.4,29.76,North,0,0.0,0.0,29,0.00,,---,0.00,VWS V14.00,2013-09-20 19:37:00,
2013-09-20 15:42:00,83.5,48.8,29.76,North,0,0.0,0.0,30,0.00,,---,0.00,VWS V14.00,2013-09-20 19:42:00,
2013-09-20 15:47:00,82.9,48.3,29.76,North,0,0.0,0.0,30,0.00,,---,0.00,VWS V14.00,2013-09-20 19:47:00,
2013-09-20 15:52:00,83.1,49.4,29.76,North,0,0.0,0.0,31,0.00,,---,0.00,VWS V14.00,2013-09-20 19:52:00,
2013-09-20 15:57:00,84.0,51.0,29.76,North,0,0.0,0.0,32,0.00,,---,0.00,VWS V14.00,2013-09-20 19:57:00,
2013-09-20 16:02:00,83.7,49.8,29.76,North,0,0.0,0.0,31,0.00,,---,0.00,VWS V14.00,2013-09-20 20:02:00,
2013-09-20 16:07:00,83.3,49.5,29.76,North,0,0.0,0.0,31,0.00,,---,0.00,VWS V14.00,2013-09-20 20:07:00,
2013-09-20 16:12:00,83.8,50.0,29.76,North,0,0.0,0.0,31,0.00,,---,0.00,VWS V14.00,2013-09-20 20:12:00,
2013-09-20 16:17:00,83.5,48.8,29.76,North,0,0.0,0.0,30,0.00,,---,0.00,VWS V14.00,2013-09-20 20:17:00,
2013-09-20 16:22:00,83.5,49.7,29.76,North,0,0.0,0.0,31,0.00,,---,0.00,VWS V14.00,2013-09-20 20:22:00,
2013-09-20 16:27:00,84.0,50.2,29.76,North,0,0.0,0.0,31,0.00,,---,0.00,VWS V14.00,2013-09-20 20:27:00,
2013-09-20 16:32:00,84.2,49.4,29.76,North,0,0.0,0.0,30,0.00,,---,0.00,VWS V14.00,2013-09-20 20:32:00,
2013-09-20 16:37:00,84.4,49.6,29.76,North,0,0.0,0.0,30,0.00,,---,0.00,VWS V14.00,2013-09-20 20:37:00,
2013-09-20 16:42:00,84.7,50.8,29.76,North,0,0.0,0.0,31,0.00,,---,0.00,VWS V14.00,2013-09-20 20:42:00,
2013-09-20 16:47:00,84.6,49.8,29.76,North,0,0.0,0.0,30,0.00,,---,0.00,VWS V14.00,2013-09-20 20:47:00,
2013-09-20 16:52:00,83.8,48.2,29.76,North,0,0.0,0.0,29,0.00,,---,0.00,VWS V14.00,2013-09-20 20:52:00,
2013-09-20 16:57:00,83.5,48.8,29.76,North,0,0.0,0.0,30,0.00,,---,0.00,VWS V14.00,2013-09-20 20:57:00,
2013-09-20 17:02:00,83.5,48.8,29.76,North,0,0.0,0.0,30,0.00,,---,0.00,VWS V14.00,2013-09-20 21:02:00,
2013-09-20 17:07:00,82.9,49.2,29.76,North,0,0.0,0.0,31,0.00,,---,0.00,VWS V14.00,2013-09-20 21:07:00,
2013-09-20 17:12:00,83.1,48.5,29.76,North,0,0.0,0.0,30,0.00,,---,0.00,VWS V14.00,2013-09-20 21:12:00,
2013-09-20 17:17:00,82.9,47.5,29.76,North,0,0.0,0.0,29,0.00,,---,0.00,VWS V14.00,2013-09-20 21:17:00,
2013-09-20 17:22:00,82.9,49.2,29.76,North,0,0.0,0.0,31,0.00,,---,0.00,VWS V14.00,2013-09-20 21:22:00,
2013-09-20 17:27:00,83.1,49.4,29.76,North,0,0.0,0.0,31,0.00,,---,0.00,VWS V14.00,2013-09-20 21:27:00,
2013-09-20 17:32:00,82.9,49.2,29.76,North,0,0.0,0.0,31,0.00,,---,0.00,VWS V14.00,2013-09-20 21:32:00,
2013-09-20 17:38:00,82.9,49.2,29.76,North,0,0.0,0.0,31,0.00,,---,0.00,VWS V14.00,2013-09-20 21:38:00,
2013-09-20 17:43:00,82.8,49.1,29.74,North,0,0.0,0.0,31,0.00,,---,0.00,VWS V14.00,2013-09-20 21:43:00,
2013-09-20 17:48:00,83.1,49.4,29.74,North,0,0.0,0.0,31,0.00,,---,0.00,VWS V14.00,2013-09-20 21:48:00,
2013-09-20 17:53:00,83.3,49.5,29.74,North,0,0.0,0.0,31,0.00,,---,0.00,VWS V14.00,2013-09-20 21:53:00,
2013-09-20 17:58:00,83.3,49.5,29.74,North,0,0.0,0.0,31,0.00,,---,0.00,VWS V14.00,2013-09-20 21:58:00,
2013-09-20 18:03:00,82.8,49.1,29.74,North,0,0.0,0.0,31,0.00,,---,0.00,VWS V14.00,2013-09-20 22:03:00,
2013-09-20 18:08:00,81.9,49.1,29.74,North,0,0.0,0.0,32,0.00,,---,0.00,VWS V14.00,2013-09-20 22:08:00,
2013-09-20 18:13:00,82.2,49.5,29.76,North,0,0.0,0.0,32,0.00,,---,0.00,VWS V14.00,2013-09-20 22:13:00,
2013-09-20 18:18:00,82.4,49.6,29.76,North,0,0.0,0.0,32,0.00,,---,0.00,VWS V14.00,2013-09-20 22:18:00,
2013-09-20 18:23:00,82.6,48.9,29.76,North,0,0.0,0.0,31,0.00,,---,0.00,VWS V14.00,2013-09-20 22:23:00,
2013-09-20 18:28:00,82.6,49.8,29.74,North,0,0.0,0.0,32,0.00,,---,0.00,VWS V14.00,2013-09-20 22:28:00,
2013-09-20 18:33:00,82.2,49.5,29.74,North,0,0.0,0.0,32,0.00,,---,0.00,VWS V14.00,2013-09-20 22:33:00,
2013-09-20 18:38:00,82.2,49.5,29.74,North,0,0.0,0.0,32,0.00,,---,0.00,VWS V14.00,2013-09-20 22:38:00,
2013-09-20 18:43:00,81.7,49.0,29.74,North,0,0.0,0.0,32,0.00,,---,0.00,VWS V14.00,2013-09-20 22:43:00,
2013-09-20 18:48:00,81.1,48.5,29.74,North,0,0.0,0.0,32,0.00,,---,0.00,VWS V14.00,2013-09-20 22:48:00,
2013-09-20 18:53:00,80.4,48.7,29.74,North,0,0.0,0.0,33,0.00,,---,0.00,VWS V14.00,2013-09-20 22:53:00,
2013-09-20 18:58:00,79.7,48.1,29.76,North,0,0.0,0.0,33,0.00,,---,0.00,VWS V14.00,2013-09-20 22:58:00,
2013-09-20 19:03:00,79.3,48.6,29.76,North,0,0.0,0.0,34,0.00,,---,0.00,VWS V14.00,2013-09-20 23:03:00,
2013-09-20 19:08:00,78.8,48.1,29.76,North,0,0.0,0.0,34,0.00,,---,0.00,VWS V14.00,2013-09-20 23:08:00,
2013-09-20 19:13:00,78.6,49.5,29.74,North,0,0.0,0.0,36,0.00,,---,0.00,VWS V14.00,2013-09-20 23:13:00,
2013-09-20 19:18:00,78.1,49.7,29.74,North,0,0.0,0.0,37,0.00,,---,0.00,VWS V14.00,2013-09-20 23:18:00,
2013-09-20 19:23:00,77.7,50.1,29.74,North,0,0.0,0.0,38,0.00,,---,0.00,VWS V14.00,2013-09-20 23:23:00,
2013-09-20 19:28:00,77.4,50.5,29.74,North,0,0.0,0.0,39,0.00,,---,0.00,VWS V14.00,2013-09-20 23:28:00,
2013-09-20 19:33:00,77.0,50.9,29.74,North,0,0.0,0.0,40,0.00,,---,0.00,VWS V14.00,2013-09-20 23:33:00,
2013-09-20 19:38:00,76.6,51.2,29.74,North,0,0.0,0.0,41,0.00,,---,0.00,VWS V14.00,2013-09-20 23:38:00,
2013-09-20 19:43:00,76.5,51.7,29.74,North,0,0.0,0.0,42,0.00,,---,0.00,VWS V14.00,2013-09-20 23:43:00,
2013-09-20 19:48:00,75.9,51.8,29.74,North,0,0.0,0.0,43,0.00,,---,0.00,VWS V14.00,2013-09-20 23:48:00,
2013-09-20 19:53:00,75.7,51.7,29.74,North,0,0.0,0.0,43,0.00,,---,0.00,VWS V14.00,2013-09-20 23:53:00,
2013-09-20 19:58:00,75.6,52.1,29.74,North,0,0.0,0.0,44,0.00,,---,0.00,VWS V14.00,2013-09-20 23:58:00,
2013-09-20 20:03:00,75.4,52.0,29.74,North,0,0.0,0.0,44,0.00,,---,0.00,VWS V14.00,2013-09-21 00:03:00,
2013-09-20 20:08:00,75.2,52.4,29.74,North,0,0.0,0.0,45,0.00,,---,0.00,VWS V14.00,2013-09-21 00:08:00,
2013-09-20 20:13:00,75.0,52.9,29.74,North,0,0.0,0.0,46,0.00,,---,0.00,VWS V14.00,2013-09-21 00:13:00,
2013-09-20 20:18:00,74.7,53.1,29.74,North,0,0.0,0.0,47,0.00,,---,0.00,VWS V14.00,2013-09-21 00:18:00,
2013-09-20 20:23:00,74.5,53.0,29.74,North,0,0.0,0.0,47,0.00,,---,0.00,VWS V14.00,2013-09-21 00:23:00,
2013-09-20 20:28:00,74.3,53.4,29.74,North,0,0.0,0.0,48,0.00,,---,0.00,VWS V14.00,2013-09-21 00:28:00,
2013-09-20 20:33:00,74.1,53.2,29.74,North,0,0.0,0.0,48,0.00,,---,0.00,VWS V14.00,2013-09-21 00:33:00,
2013-09-20 20:38:00,73.9,53.6,29.74,North,0,0.0,0.0,49,0.00,,---,0.00,VWS V14.00,2013-09-21 00:38:00,
2013-09-20 20:43:00,73.8,54.0,29.74,North,0,0.0,0.0,50,0.00,,---,0.00,VWS V14.00,2013-09-21 00:43:00,
2013-09-20 20:48:00,73.8,54.0,29.74,North,0,0.0,0.0,50,0.00,,---,0.00,VWS V14.00,2013-09-21 00:48:00,
2013-09-20 20:53:00,73.6,54.4,29.74,North,0,0.0,0.0,51,0.00,,---,0.00,VWS V14.00,2013-09-21 00:53:00,
2013-09-20 20:58:00,73.4,54.2,29.74,North,0,0.0,0.0,51,0.00,,---,0.00,VWS V14.00,2013-09-21 00:58:00,
2013-09-20 21:03:00,73.2,54.6,29.74,North,0,0.0,0.0,52,0.00,,---,0.00,VWS V14.00,2013-09-21 01:03:00,
2013-09-20 21:08:00,73.2,55.1,29.74,North,0,0.0,0.0,53,0.00,,---,0.00,VWS V14.00,2013-09-21 01:08:00,
2013-09-20 21:13:00,73.2,55.6,29.74,North,0,0.0,0.0,54,0.00,,---,0.00,VWS V14.00,2013-09-21 01:13:00,
2013-09-20 21:18:00,73.0,55.4,29.74,North,0,0.0,0.0,54,0.00,,---,0.00,VWS V14.00,2013-09-21 01:18:00,
2013-09-20 21:23:00,72.9,55.3,29.74,North,0,0.0,0.0,54,0.00,,---,0.00,VWS V14.00,2013-09-21 01:23:00,
2013-09-20 21:28:00,72.7,55.6,29.74,North,0,0.0,0.0,55,0.00,,---,0.00,VWS V14.00,2013-09-21 01:28:00,
2013-09-20 21:33:00,72.5,55.4,29.74,North,0,0.0,0.0,55,0.00,,---,0.00,VWS V14.00,2013-09-21 01:33:00,
2013-09-20 21:38:00,72.5,55.4,29.74,North,0,0.0,0.0,55,0.00,,---,0.00,VWS V14.00,2013-09-21 01:38:00,
2013-09-20 21:43:00,72.3,55.3,29.76,North,0,0.0,0.0,55,0.00,,---,0.00,VWS V14.00,2013-09-21 01:43:00,
2013-09-20 21:48:00,72.3,55.8,29.76,North,0,0.0,0.0,56,0.00,,---,0.00,VWS V14.00,2013-09-21 01:48:00,
2013-09-20 21:53:00,72.1,56.1,29.76,North,0,0.0,0.0,57,0.00,,---,0.00,VWS V14.00,2013-09-21 01:53:00,
2013-09-20 21:58:00,72.1,56.1,29.74,North,0,0.0,0.0,57,0.00,,---,0.00,VWS V14.00,2013-09-21 01:58:00,
2013-09-20 22:03:00,72.0,56.4,29.74,North,0,0.0,0.0,58,0.00,,---,0.00,VWS V14.00,2013-09-21 02:03:00,
2013-09-20 22:08:00,72.0,56.9,29.74,North,0,0.0,0.0,59,0.00,,---,0.00,VWS V14.00,2013-09-21 02:08:00,
2013-09-20 22:13:00,72.0,57.3,29.76,North,0,0.0,0.0,60,0.00,,---,0.00,VWS V14.00,2013-09-21 02:13:00,
2013-09-20 22:18:00,72.0,57.3,29.76,North,0,0.0,0.0,60,0.00,,---,0.00,VWS V14.00,2013-09-21 02:18:00,
2013-09-20 22:23:00,71.8,57.6,29.76,North,0,0.0,0.0,61,0.00,,---,0.00,VWS V14.00,2013-09-21 02:23:00,
2013-09-20 22:28:00,71.8,57.6,29.76,North,0,0.0,0.0,61,0.00,,---,0.00,VWS V14.00,2013-09-21 02:28:00,
2013-09-20 22:33:00,71.6,57.5,29.76,North,0,0.0,0.0,61,0.00,,---,0.00,VWS V14.00,2013-09-21 02:33:00,
2013-09-20 22:38:00,71.6,57.9,29.76,North,0,0.0,0.0,62,0.00,,---,0.00,VWS V14.00,2013-09-21 02:38:00,
2013-09-20 22:43:00,71.6,57.9,29.74,North,0,0.0,0.0,62,0.00,,---,0.00,VWS V14.00,2013-09-21 02:43:00,
2013-09-20 22:48:00,71.6,58.3,29.74,North,0,0.0,0.0,63,0.00,,---,0.00,VWS V14.00,2013-09-21 02:48:00,
2013-09-20 22:53:00,71.6,58.3,29.74,North,0,0.0,0.0,63,0.00,,---,0.00,VWS V14.00,2013-09-21 02:53:00,
2013-09-20 22:58:00,71.4,58.6,29.74,North,0,0.0,0.0,64,0.00,,---,0.00,VWS V14.00,2013-09-21 02:58:00,
2013-09-20 23:03:00,71.4,59.0,29.74,North,0,0.0,0.0,65,0.00,,---,0.00,VWS V14.00,2013-09-21 03:03:00,
2013-09-20 23:09:00,71.4,59.0,29.74,North,0,0.0,0.0,65,0.00,,---,0.00,VWS V14.00,2013-09-21 03:09:00,
2013-09-20 23:14:00,71.2,58.5,29.74,North,0,0.0,0.0,64,0.00,,---,0.00,VWS V14.00,2013-09-21 03:14:00,
2013-09-20 23:19:00,71.2,58.9,29.74,North,0,0.0,0.0,65,0.00,,---,0.00,VWS V14.00,2013-09-21 03:19:00,
2013-09-20 23:24:00,71.1,58.7,29.74,North,0,0.0,0.0,65,0.00,,---,0.00,VWS V14.00,2013-09-21 03:24:00,
2013-09-20 23:29:00,70.9,58.5,29.76,North,0,0.0,0.0,65,0.00,,---,0.00,VWS V14.00,2013-09-21 03:29:00,
2013-09-20 23:34:00,71.1,59.1,29.76,North,0,0.0,0.0,66,0.00,,---,0.00,VWS V14.00,2013-09-21 03:34:00,
2013-09-20 23:39:00,70.9,58.5,29.76,North,0,0.0,0.0,65,0.00,,---,0.00,VWS V14.00,2013-09-21 03:39:00,
2013-09-20 23:44:00,70.9,59.0,29.74,North,0,0.0,0.0,66,0.00,,---,0.00,VWS V14.00,2013-09-21 03:44:00,
2013-09-20 23:49:00,70.9,59.4,29.74,North,0,0.0,0.0,67,0.00,,---,0.00,VWS V14.00,2013-09-21 03:49:00,
2013-09-20 23:54:00,70.7,59.2,29.74,North,0,0.0,0.0,67,0.00,,---,0.00,VWS V14.00,2013-09-21 03:54:00,
2013-09-20 23:59:00,70.7,59.2,29.74,North,0,0.0,0.0,67,0.00,,---,0.00,VWS V14.00,2013-09-21 03:59:00,